www.pogodaiklimat.ru

Погода и климат >> Архив погоды >> Россия >> Магаданская область >> Усть-Бохапча


ПОГОДА в Усть-Бохапче

  • Прогноз погоды в Усть-Бохапче
  • Монитор погоды в Усть-Бохапче

АРХИВ ПОГОДЫ в Усть-Бохапче

Время (UTC), дата Ветер
(напр.,м/с)
 
Видим.   Явления Облачность Т
(С)
Тd
(С)
f
(%)
Тe
(С)
Тes
(С)
Комфортность P
(гПа)
Po
(гПа)
Тmin
(С)
Tmax
(С)
R
(мм)
R24
(мм)
S
(см)
06 10.07 З 5
{10}
19 км 8/4 1000 м
[Cu med, cong Ac trans Ci fib]
+25.7 +8.1 33 +26 +27 жарко 1007.1 968.0
09 10.07 С 1
{10}
50 км 4/4 1000 м
[Sc]
+20.8 +8.3 45 +23 +24 комфорт 1008.5 968.7 +26.5
12 10.07 Ю 1 50 км 9/9 1000 м
[Sc]
+16.3 +9.4 64 +17 +17 1009.7 969.2
15 10.07 ЮВ 2 50 км 9/9 1000 м
[Sc]
+14.5 +10.0 74 +14 +14 1010.3 969.6
18 10.07 Ю 1 50 км 9/9 1000 м
[Sc]
+14.4 +8.9 70 +15 +15 1011.0 970.2
21 10.07 ЮВ 2 50 км 4/4 1000 м
[Sc]
+18.9 +8.3 50 +20 +23 1010.4 970.2 +13.2
00 11.07 С 1 50 км 1/1 1000 м
[Cu hum]
+23.7 +8.2 37 +24 +36 комфорт 1008.5 969.0
03 11.07 СВ 1 50 км ясно +28.6 +8.2 28 +28 +43 жарко 1008.5 967.1
06 11.07 З 2 50 км 1/1 1000 м
[Cu hum]
+29.7 +4.9 21 +28 +34 жарко 966.3
09 11.07 СЗ 1 50 км 1/1 1000 м
[Cu hum]
+27.5 +6.5 26 +27 +28 жарко 1004.9 966.1 +29.9
12 11.07 штиль 0 50 км 1/0
[Ci fib]
+12.0 +8.5 79 +12 +12 1008.0 967.0
15 11.07 штиль 0 50 км ясно +6.7 +6.4 98 +6 +6 1009.7 967.9
18 11.07 ЮВ 1 50 км 1/1 1000 м
[Cu hum]
+7.7 +7.6 99 +7 +7 1010.4 968.7
21 11.07 штиль 0 50 км ясно +16.5 +8.4 59 +16 +22 1009.5 969.0 +3.8
00 12.07 В 1 50 км 1/1 1000 м
[Cu hum]
+26.3 +8.1 32 +26 +38 жарко 1006.8 967.8
03 12.07 С 1 50 км 3/3 1000 м
[Cu hum]
+31.8 +3.9 17 +29 +40 жарко 1004.4 966.1
06 12.07 З 4 50 км 6/6 1000 м
[Cu hum]
+31.9 +5.5 19 +30 +32 жарко 1003.4 965.2
09 12.07 штиль 0 50 км 8/8 1000 м
[Sc Ci fib]
+23.0 +14.1 57 +26 +27 жарко 1005.4 966.1 +32.8
12 12.07 штиль 0 50 км 9/9 1000 м
[Sc]
+17.9 +12.6 71 +18 +18 1007.9 967.8
15 12.07 ЮЗ 1 50 км 8/8 1000 м
[Sc]
+15.8 +10.8 72 +17 +17 1009.3 968.8
18 12.07 штиль 0 50 км 9/9 1000 м
[Sc]
+12.4 +10.9 91 +12 +12 1011.0 970.0
21 12.07 штиль 0 50 км 9/4 1000 м
[Sc Ac trans]
+18.6 +11.3 62 +19 +21 1010.5 970.3 +12.4
00 13.07 С 1 50 км 6/6 1000 м
[Sc]
+24.3 +13.7 52 +27 +32 жарко 1008.5 969.2
03 13.07 З 3 50 км 3/3 1000 м
[Cu hum Ac trans]
+30.4 +10.3 29 +30 +38 жарко 1005.8 967.3
06 13.07 Ю 2 50 км 9/6 1000 м
[Cu med, cong Ac trans]
+28.7 +6.1 24 +28 +29 жарко 1005.1 966.4
09 13.07 ЮВ 5 50 км 8/3 1000 м
[Cu hum Ac trans Ci fib]
+26.7 +8.0 31 +27 +27 жарко 1005.7 966.7 +30.7
12 13.07 ЮВ 1 50 км 3/3 1000 м
[Sc Ci fib]
+21.9 +9.0 44 +23 +23 комфорт 1006.9 967.3
15 13.07 В 1 50 км 1/0
[Ci fib]
+12.0 +9.8 86 +12 +12 1009.2 968.2
18 13.07 В 1 50 км 1/1 1000 м
[Sc]
+12.6 +10.0 84 +13 +13 1009.9 968.9
21 13.07 ЮЗ 1 50 км 1/1 1000 м
[Cu hum]
+19.2 +11.1 59 +21 +26 комфорт 1009.0 969.0 +12.0
00 14.07 Ю 2 50 км ясно +28.1 +9.6 31 +28 +39 жарко 1006.1 967.4
03 14.07 СЗ 3 50 км 1/1 1000 м
[Cu hum]
+31.6 +6.9 21 +30 +39 жарко 1004.0 965.7
06 14.07 СЗ 4 50 км 3/3 1000 м
[Cu hum Ci fib]
+31.6 +6.9 21 +30 +33 жарко 1004.0 964.1
09 14.07 С 1 50 км 1/0
[Ci fib]
+28.3 +5.4 23 +27 +28 жарко 1002.2 963.6 +32.4
12 14.07 Ю 1 50 км 1/0
[Ci fib]
+15.4 +8.1 62 +16 +16 1004.4 964.1
15 14.07 ЮВ 2 50 км ясно +12.9 +7.3 69 +12 +12 1005.3 964.5
18 14.07 В 2 50 км ясно +11.9 +5.6 65 +11 +11 1005.8 964.8
21 14.07 Ю 1 50 км 3/1 1000 м
[Cu hum Ci fib]
+18.7 +6.9 46 +20 +24 1004.8 964.9 +10.5
00 15.07 Ю 2 н/о н/о +27.4 +7.3 28 +27 +27 жарко 1002.2 963.5
03 15.07 ЮЗ 1 50 км 3/1 1000 м
[Cu hum Ci fib]
+31.6 +6.6 21 +30 +41 жарко 999.6 961.5
06 15.07 З 4 50 км 8/4 1000 м
[Cu med, cong Ac trans Ci fib]
+31.3 +7.5 23 +30 +32 жарко 998.8 960.7
09 15.07 С 5
{15}
10 км дым 10/8 600 м
[Sc As op]
+22.6 +14.0 58 +26 +26 жарко 1002.8 963.5 +32.5
12 15.07 ЮВ 1 4000 м мгла 10/8 600 м
[Sc As op]
+18.2 +13.9 76 +20 +20 1004.7 964.7
15 15.07 СЗ 5
{10}
4000 м мгла 10/10 600 м
[Sc]
+16.7 +12.4 76 +16 +16 1006.6 966.4
18 15.07 Ю 1 10 км слаб. ливневой дождь 10/10 600 м
[Cb cap]
+14.8 +12.2 84 +15 +15 1007.1 966.6
21 15.07 С 5
{11}
10 км слаб. ливневой дождь 10/10 600 м
[Cb cap]
+12.5 +10.7 89 +10 +10 1009.2 968.3 +12.5 0.0
00 16.07 СЗ 3
{12}
10 км слаб. ливневой дождь 10/10 600 м
[Cb cap]
+11.6 +10.7 94 +10 +10 1010.4 969.3 +11.6
03 16.07 СЗ 2 10 км слаб. ливневой дождь 10/10 600 м
[Cb cap]
+11.7 +11.0 95 +10 +10 1010.7 969.6
06 16.07 С 1 50 км {ливн. осадки} 10/10 600 м
[Sc]
+13.5 +9.5 77 +14 +14 1009.9 969.1
09 16.07 З 2 50 км 10/10 600 м
[Sc]
+13.1 +10.8 86 +12 +12 1010.1 969.2 +13.6 7
12 16.07 штиль 0 50 км 9/9 1000 м
[Sc]
+11.4 +10.8 96 +11 +11 1010.0 968.9
15 16.07 штиль 0 10 км дымка 9/9 1000 м
[Sc]
+7.1 +7.1 100 +6 +6 1009.8 968.0
18 16.07 штиль 0 4000 м дымка 10/10 600 м
[Sc]
+8.2 +8.2 100 +7 +7 1008.7 967.2
21 16.07 штиль 0 4000 м слаб. ливневой дождь 10/10 600 м
[Cb cap]
+9.7 +9.6 99 +9 +9 1007.5 966.2 +6.1 2
00 17.07 С 3 10 км слаб. ливневой дождь 10/10 600 м
[Cb cap]
+11.1 +9.9 92 +9 +9 1006.6 965.6
03 17.07 СЗ 3 50 км {ливн. осадки} 10/10 600 м
[Cb cap]
+14.3 +10.8 79 +13 +13 1005.4 964.9

 

Местоположение метеостанции Усть-Бохапча (Магаданская область, Россия): широта 62.10 долгота 150.60 высота над уровнем моря 349 м.

В архиве по умолчанию представлена погода в Усть-Бохапче за последнюю неделю. Архивные данные за месяц целиком и за предыдущие месяцы, начиная с января 2011 года, Вы можете получить, выбрав интересующий диапазон дат из раскрывающегося списка и нажав кнопку "Ввод!".


*Определитесь, кто Вы:
робот инопланетянин человек

Внимание! Время в таблицах - всемирное. Для получения местного времени необходимо прибавить поправку, которая равна 11 ч.

Смотрите также архив погоды в соседних городах и на ближайших метеорологических станциях:

Погода на Озере Джека Лондона (Магаданская область, Россия) (57 км)
Погода в Ягодной (Магаданская область, Россия) (69 км)
Погода в Совхозе Эльген (Магаданская область, Россия) (78 км)
Погода в Среднекане (Магаданская область, Россия) (96 км)
Погода в Усть-Омчуге (Магаданская область, Россия) (121 км)
Погода в Сеймчане (Магаданская область, Россия) (129 км)
Погода в Талой (Магаданская область, Россия) (140 км)
Погода в Сусумане (Магаданская область, Россия) (149 км)
Погода в Колымской (Магаданская область, Россия) (159 км)
Погода в Мадауне (Магаданская область, Россия) (167 км)

Пояснения к столбцам:

Ветер - указаны скорость ветра в м/с - средняя за 10 мин, порывы в срок и между сроками (в фигурных скобках) и направление, откуда дует ветер: С - северный, СВ - северо-восточный, В - восточный, ЮВ - юго-восточный, Ю - южный, ЮЗ - юго-западный, З - западный, СЗ - северо-западный.
Видимость - горизонтальная дальность видимости в метрах или километрах. При видимости от 1 до 10 км при отсутствии осадков обычно наблюдается дымка, при ухудшении видимости до 1 км и менее - туман. В сухую погоду видимость может ухудшаться дымом, пылью или мглою.
Явления - указаны атмосферные явления, наблюдавшиеся в срок или в последний час перед сроком; фигурными скобками обозначены явления, наблюдавшиеся между сроками (за 1-3 часа до срока); квадратными скобками обозначены град или гололедные отложения с указанием их диаметра в мм.
Облачность - указаны через наклонную черту общая и нижняя облачность в баллах и высота нижней границы облаков в метрах; квадратными скобками обозначены формы облаков: Ci - перистые, Cs - перисто-слоистые, Cc - перисто-кучевые, Ac - высококучевые, As - высокослоистые, Sc - слоисто-кучевые, Ns - слоисто-дождевые, Cu - кучевые, Cb - кучево-дождевые. Подробнее классификацию облаков см. в Атласе облаков (PDF).
T - Температура воздуха - температура, измеренная на высоте 2 м над землей.
Td - Температура точки росы - температура, при понижении до которой содержащийся в воздухе водяной пар достигнет насыщения.
f - Относительная влажность воздуха - влажноcть воздуха, измеренная на высоте 2 м над землей.
Te - Эффективная температура - температура, которую ощущает одетый по сезону человек в тени. Характеристика душности погоды. При расчете учитывается влияние влажности воздуха и скорости ветра на теплоощущения человека.
Tes - Эффективная температура на солнце - температура, которую ощущает человек, с поправкой на солнечный нагрев. Характеристика знойности погоды. Зависит от высоты солнца над горизонтом, облачности и скорости ветра. Ночью, в пасмурную погоду, а также при ветре 12 м/с и более поправка равна нулю.
P - Атмосферное давление - приведенное к уровню моря атмосферное давление.
Po - Атмосферное давление - измеренное на уровне метеостанции атмосферное давление.
Tmin - Минимальная температура - минимум температуры воздуха на высоте 2 м над землей.
Tmax - Максимальная температура - максимум температуры воздуха на высоте 2 м над землей.
R - Количество осадков - Количество выпавших осадков за период времени, мм. При наведении курсора мыши на число - период времени, за который выпало указанное количество осадков.
R24 - Количество осадков - Количество выпавших осадков за 24 часа, мм.
S - Снежный покров - Высота снежного покрова, см. При наведении курсора мыши на число - состояние снежного покрова и степень покрытия местности в баллах.